Regional Weather Roundup
Issued by NWS

Home | Current Version | Previous Version | Text Only | Print | Product List | Glossary On
Versions: 1 2 3 4 5 6 7 8 9 10 11 12 13 14 15 16 17 18 19 20 21 22 23 24 25 26 27 28 29 30 31 32 33 34 35 36 37 38 39 40 41 42 43 44 45 46 47 48 49 50
000
ASUS43 KMKX 020310
RWRWI

WISCONSIN REGIONAL WEATHER ROUNDUP
NATIONAL WEATHER SERVICE MILWAUKEE/SULLIVAN WI
900 PM CST SUN MAR 01 2015

NOTE: "FAIR" INDICATES FEW OR NO CLOUDS BELOW 12,000 FEET WITH NO
SIGNIFICANT WEATHER AND/OR OBSTRUCTIONS TO VISIBILITY.

WIZ001-002-006>008-014>016-023>028-020400-
NORTHWEST WISCONSIN

CITY           SKY/WX    TMP DP  RH WIND       PRES   REMARKS
SUPERIOR ARPT  MOCLDY    20  10  65 CALM      30.24R
ASHLAND        MOCLDY    21   8  57 W9G18     30.19R WCI  11
HAYWARD        PTCLDY    19   6  57 W5        30.20R WCI  12
SIREN          CLEAR     19  11  69 W10       30.26R WCI   8
CUMBERLAND     PTCLDY    19   9  63 W13       30.23R WCI   7
RICE LAKE      PTCLDY    20   9  60 W9G16     30.25R WCI  10
CHETEK         CLEAR     20   9  61 W7        30.24R WCI  11
LADYSMITH      PTCLDY    19   8  61 W9        30.22R WCI   8
EAU CLAIRE     PTCLDY    17   7  64 W6        30.25R WCI   9
MENOMONIE      FAIR      19  10  66 W6        30.26S WCI  11
NEW RICHMOND   MOCLDY    22  12  64 W13       30.27R WCI  10
OSCEOLA        MOCLDY    23  14  67 W17G24    30.31R WCI  10
$$

WIZ003>005-009-010-017-018-020400-
NORTH CENTRAL WISCONSIN

CITY           SKY/WX    TMP DP  RH WIND       PRES   REMARKS
MANITOWISH WTR CLOUDY    17   4  55 W10       30.11R WCI   5
ARBOR VITAE    CLOUDY    19   6  57 W8        30.11R WCI   9
WOODRUFF       CLOUDY    19   6  57 W8        30.11R WCI   9
RHINELANDER    CLEAR     14   3  61 W14       30.12R WCI  -1
EAGLE RIVER    PTCLDY    16   1  51 W9        30.09R WCI   5
LAND O LAKES   MOCLDY    15   3  59 W5        30.09R WCI   8
PHILLIPS       CLEAR     16   5  61 W5        30.15R WCI   9
TOMAHAWK       CLEAR     15   3  59 CALM      30.16R
MEDFORD        PTCLDY    15   5  64 W8        30.18R WCI   4
MERRILL        CLEAR     15   4  59 W6        30.17R WCI   7
$$

WIZ029-030-035-036-043>047-020400-
CENTRAL WISCONSIN

CITY           SKY/WX    TMP DP  RH WIND       PRES   REMARKS
WAUSAU         CLEAR     17   5  59 W12       30.18R WCI   4
MOSINEE        NOT AVBL
MARSHFIELD     CLEAR     16   5  62 W8        30.21R WCI   5
STEVENS POINT  CLEAR     17   4  59 W9        30.22R WCI   5
WAUPACA        CLEAR     21   7  53 W9        30.23R WCI  11
WAUTOMA        CLEAR     19   5  54 W10       30.25R WCI   7
WISC RAPIDS    CLEAR     18   5  57 W9        30.25R WCI   7
CAMP DOUGLAS   CLEAR     18   9  67 W9        30.27R WCI   7
$$

WIZ011>013-019>022-031-037>040-048>050-020400-
NORTHEAST WISCONSIN

CITY           SKY/WX    TMP DP  RH WIND       PRES   REMARKS
ANTIGO         CLEAR     13   3  64 W10       30.14R WCI   0
SHAWANO        CLEAR     20   9  62 W8        30.20R WCI  10
OCONTO         CLOUDY    17   9  71 W7        30.19R WCI   8
STURGEON BAY   PTCLDY    18   9  68 W8        30.19R WCI   7
GREEN BAY      CLEAR     20  11  68 W12       30.20R WCI   8
MANITOWOC      CLEAR     20  13  74 W9        30.21R WCI   9
APPLETON       CLEAR     18   9  68 W9        30.21R WCI   6
CLINTONVILLE   CLEAR     19   9  63 W12       30.20R WCI   7
OSHKOSH        CLEAR     20   7  57 W8        30.23R WCI  10
$$

WIZ032>034-041-042-053>061-020400-
SOUTHWEST WISCONSIN

CITY           SKY/WX    TMP DP  RH WIND       PRES   REMARKS
LA CROSSE      CLEAR     19   8  62 SW8       30.31S WCI   9
SPARTA         CLEAR     17   8  67 SW3       30.30S
VIROQUA        CLEAR     16   9  73 W13       30.26S WCI   2
BOSCOBEL       CLEAR     19   7  59 S5        30.34S WCI  12
PRAIRIE DU CHI CLEAR     16   7  66 W6        30.35R WCI   7
PLATTEVILLE    CLEAR     15   8  72 SW6       30.32S WCI   6
$$

WIZ056-057-062-063-064-067-068-020400-
SOUTH CENTRAL WISCONSIN

CITY           SKY/WX    TMP DP  RH WIND       PRES   REMARKS
REEDSBURG      CLEAR     18   7  61 W6        30.28S WCI  10
BARABOO/DELLS  CLEAR     17   5  59 W7        30.27S WCI   7
LONE ROCK      CLEAR     18   5  57 W10       30.32R WCI   6
MINERAL POINT  CLEAR     19   9  63 W8        30.29S WCI   9
MADISON        CLEAR     20   6  55 W6        30.29R WCI  12
MIDDLETON      CLEAR     21   6  53 W14       30.29R WCI   8
WATERTOWN      CLEAR     21   9  59 W9        30.27R WCI  10
MONROE         CLEAR     19  10  68 W15       30.30R WCI   5
JANESVILLE     CLEAR     21   9  58 W12       30.30R WCI   9
$$

WIZ051-052-058>065-066-070>072-020400-
SOUTHEAST WISCONSIN

CITY           SKY/WX    TMP DP  RH WIND       PRES   REMARKS
MILWAUKEE      CLEAR     23  14  68 W12       30.25R WCI  12
WAUKESHA       CLEAR     21  12  68 W15G22    30.26R WCI   8
MILWAUKEE/TIMM CLEAR     23  14  68 W13G20    30.26R WCI  11
RACINE         CLEAR     21  13  71 W13G20    30.27R WCI   9
BURLINGTON     CLEAR     19  11  70 W12G17    30.28  WCI   6
KENOSHA        CLEAR     21  14  74 W16G24    30.26R WCI   7
FOND DU LAC    CLEAR     21   6  52 W14       30.24R WCI   8
SHEBOYGAN      CLEAR     22  10  60 W18       30.22R WCI   7
WEST BEND      CLEAR     23  10  58 W17       30.23R WCI   9
JUNEAU         CLEAR     20   8  58 W12G18    30.27R WCI   8
$$

LSZ147-162-020400-
LAKE SUPERIOR

STATION/POSITION TIME  TEMP    WIND        PRES    WAVE
                       AIR SEA DIR/SP/G            HT/PER
                 (UTC) (F)     (DEG/KT/KT) (MB)    (FT/S)
DEVILS ISLAND    0300   22     290/ 25/ 29 1023.3R
PORT WING        0200   24     270/ 18/ 25 1022.0R
SAXON HARBOR     0240   24     250/  6/ 12 1021.7R
$$

LMZ867-665-643>646-020400-
LAKE MICHIGAN

STATION/POSITION TIME  TEMP    WIND        PRES    WAVE
                       AIR SEA DIR/SP/G            HT/PER
                 (UTC) (F)     (DEG/KT/KT) (MB)    (FT/S)
NORTHPORT PIER   0202   21     260/  6/ 16 1020.7R
SISTER BAY       0213   18     280/ 12/ 13   N/A
KEWAUNEE LAKESHO 0212   21     280/  9/ 11 1021.1R
SHEBOYGAN LAKESH 0300   24     260/ 13/ 16 1024.9R
PORT WASHINGTON  0200   25     270/  3/  7 1023.7R
MILWAUKEE LAKESH 0200   25     260/ 11/ 17   N/A
KENOSHA   LAKESH 0300   22     270/ 14/ 20 1024.7R
$$

TC  - TEMPERATURE IN CELSIUS
VSB - VISIBILITY IN STATUTE MILES
WCI - WIND CHILL INDEX
HX  - HEAT INDEX



USA.gov is the U.S. government's official web portal to all federal, state and local government web resources and services.